Мулен

Франция     46°33′56″N   3°20′06″E
темп.,
°C
ветер,
м/с
пор.,
м/с
влажн.,
%
обл.,
%
осадки,
мм/ч
давл.,
гПа
погр.,
м
23 апреля, пт
пт2323:00+9св17941 0.0 1021144
02:00+6св11982 0.0 102210
05:00+5в01975 0.0 102210
08:00+5в13855 0.0 102388
11:00+13в25470 0.0 1023608
14:00+18в35310 0.0 10211336
17:00+19в35300 0.0 10201423
20:00+14в28530 0.0 1021323
24 апреля, сб
сб2423:00+7в12790 0.0 102228
02:00+5вюв11875 0.0 102225
05:00+5юв119012 0.0 102136
08:00+7юв1481100 0.0 1021104
11:00+15юв2255100 0.0 1020451
14:00+21вюв114140 0.0 10191283
17:00+22всв22375 0.0 10172095
20:00+16всв126699 0.0 101743
25 апреля, вс
вс2523:00+11св178773 0.0 1019161
02:00+9всв159792 0.0 1019116
05:00+8в1498100 0.0 101984
08:00+9в15868 0.0 1019145
11:00+16в255698 0.0 1018606
14:00+20всв3444100 0.0 10161098
17:00+21всв3541100 0.0 10131703
20:00+17всв31064100 0.0 1013484
26 апреля, пн
пн2623:00+14в21067100 0.0 1014462
02:00+12вюв2677100 0.0 1013174
05:00+12в1679100 0.0 1011199
08:00+12в1780100 0.1 1011244
11:00+16в2559100 0.1 1009627
14:00+21вюв243596 0.1 10062042
17:00+17ююв4754100 0.0 1004773
20:00+13юв267299 0.0 1005441
27 апреля, вт
вт2723:00+12ю2680100 0.0 1005381
02:00+12юз2789100 0.1 1004666
05:00+10з2799100 1.1 1003482
08:00+10з1599100 2.8 1002337
11:00+10сз2699100 1.8 1002379
14:00+11сз2595100 2.6 1002431
17:00+15сз3461100 0.8 10011433
20:00+13ссз266699 0.9 1002449